Regional Weather Roundup
Issued by NWS

Home | Current Version | Previous Version | Text Only | Print | Product List | Glossary On
Versions: 1 2 3 4 5 6 7 8 9 10 11 12 13 14 15 16 17 18 19 20 21 22 23 24 25 26 27 28 29 30 31 32 33 34 35 36 37 38 39 40 41 42 43 44 45 46 47 48 49 50
000
ASUS43 KDTX 161310
RWRMI
MICHIGAN HOURLY REGIONAL WEATHER ROUNDUP
NATIONAL WEATHER SERVICE DETROIT/PONTIAC MI
900 AM EDT WED AUG 16 2017

NOTE: "FAIR" INDICATES FEW OR NO CLOUDS BELOW 12,000 FEET WITH NO
SIGNIFICANT WEATHER AND/OR OBSTRUCTION TO VISIBILITY.

MIZ047>049-052>055-059>063-066>070-074>076-081>083-161400-
SOUTHEAST LOWER MICHIGAN

CITY           SKY/WX    TMP DP  RH WIND       PRES   REMARKS
ADRIAN         SUNNY     69  64  84 SE3       30.09R
ALMA           CLOUDY    64  60  87 S3        30.09R
ANN ARBOR      MOSUNNY   69  58  67 E5        30.08R
BAD AXE        SUNNY     66  63  91 CALM      30.11S
CARO           SUNNY     66  59  78 E3        30.10S
DETROIT CITY   SUNNY     70  60  70 E8        30.09S
DETROIT        PTSUNNY   71  58  63 E6        30.08S
FLINT          MOSUNNY   68  59  73 SE3       30.09R
GROSSE ILE     MOSUNNY   70  53  55 E7        30.07S
HILLSDALE      CLOUDY    70  64  83 SE10      30.08R
HOWELL         PTSUNNY   67  60  76 E3        30.09R

CITY           SKY/WX    TMP DP  RH WIND       PRES   REMARKS
JACKSON        SUNNY    N/A N/A N/A SE8       30.08R
LAMBERTVILLE   SUNNY     72  67  84 SE5       30.07R
LANSING        SUNNY     69  58  67 SE6       30.08R
LAPEER         FAIR      65  61  85 CALM      30.11R
MASON          SUNNY     70  61  73 SE3       30.08S
MONROE         PTSUNNY   70  64  80 NE5       30.07R
MT. CLEMENS    MOSUNNY   69  64  85 E6        30.08S
PONTIAC        MOSUNNY   69  56  62 E9        30.09R
PORT HOPE        N/A     69  64  84 CALM      30.08S
PORT HURON     SUNNY     64  63  94 CALM      30.10S
TRI CITIES     MOSUNNY   68  60  75 E6        30.10R
MIDLAND        FAIR      66  60  80 E3        30.09R
TROY           SUNNY     68  60  74 NE6       30.11S
SAGINAW HB     SUNNY     64  59  82 E3        30.09R
$$
MIZ043>046-050>051-056>058-064>065-071>073-077>080-161400-
SOUTHWEST LOWER MICHIGAN

CITY           SKY/WX    TMP DP  RH WIND       PRES   REMARKS
BATTLE CREEK   SUNNY     70  65  84 SE7       30.07R
BENTON HARBOR    N/A     70  64  81 VRB3      30.03S
BIG RAPIDS     SUNNY     61  58  90 CALM      30.07S
COLDWATER      SUNNY     70  67  89 SE8       30.07R
FREMONT        FAIR      66  62  86 SE7       30.04S
HOLLAND        MOSUNNY   67  62  84 E6        30.05R
GRAND RAPIDS   MOSUNNY   68  64  87 SE8       30.05S
IONIA          FAIR      65  63  91 SE3       30.06S
KALAMAZOO      MOSUNNY   71  63  75 E3        30.06R HAZE
LUDINGTON      SUNNY     63  58  84 CALM      30.04S
MARSHALL       SUNNY     69  67  91 SE6       30.07R
MOUNT PLEASANT CLOUDY    66  60  81 E3        30.07F
MUSKEGON       MOSUNNY   68  61  78 SE7       30.04S
SOUTH HAVEN    MOSUNNY   68  65  89 CALM      30.04R
$$
MIZ016>042-161400-
NORTHERN LOWER MICHIGAN

CITY           SKY/WX    TMP DP  RH WIND       PRES   REMARKS
ALPENA         PTSUNNY   65  63  93 E5        30.12S
BEAVER ISLAND  MOSUNNY   64  63  97 SE3       30.08F
BELLAIRE       CLOUDY    64  60  87 CALM      30.08S
CADILLAC       MOSUNNY   64  59  83 E5        30.08S
CHARLEVOIX     MOSUNNY   64  62  92 E8        30.10F
FRANKFORT      MOSUNNY   65  63  93 CALM      30.06S
GAYLORD        FOG       60  58  92 SE7       30.11S VSB 3/4
GRAYLING       CLOUDY    58  57  95 E3        30.11S FOG
HARBOR SPRINGS PTSUNNY   63  60  93 E8        30.10S
HOUGHTON LAKE  CLOUDY    61  59  93 E3        30.11R
OSCODA         CLOUDY    67  64  88 SE5       30.10S
PELLSTON       CLOUDY    61  59  93 CALM      30.11S
ROGERS CITY    PTSUNNY   64  58  82 SE5       30.13R
TRAVERSE CITY  CLOUDY    64  58  80 CALM      30.06S
$$
MIZ007>008-015-161400-
EASTERN UPPER MICHIGAN

CITY           SKY/WX    TMP DP  RH WIND       PRES   REMARKS
KINROSS        CLOUDY    60  56  86 E7        30.13R
MACKINAC ISLAN CLOUDY    66  61  84 SE6       30.10S
NEWBERRY       CLOUDY    55  55  97 E3        30.11S
S. S. MARIE    CLOUDY    59  53  80 E7        30.12R
MUNISING         N/A     56  56 100 S3        30.09S
$$
MIZ004>006-011>014-085-161400-
CENTRAL UPPER MICHIGAN

CITY           SKY/WX    TMP DP  RH WIND       PRES   REMARKS
MANISTIQUE     CLOUDY    57  51  80 NW3       30.09R
ESCANABA       FOG       54  54 100 CALM      30.09S VSB 1/4
MENOMINEE      CLOUDY    58  57  97 N5        30.09R
SAWYER-GWINN   FOG       52  50  93 CALM      30.10S VSB 1/2
$$
MIZ001>003-009>011-084-161400-
WESTERN UPPER MICHIGAN

CITY           SKY/WX    TMP DP  RH WIND       PRES   REMARKS
IRON MOUNTAIN  CLOUDY    55  52  89 CALM      30.09S FOG
HOUGHTON       SUNNY     58  53  84 E3        30.08S
COPPER HARBOR    N/A     59  55  87 VRB3      30.09R
IRONWOOD       CLOUDY    61  57  88 VRB7      30.05F
$$

ABBREVIATIONS USED IN REMARKS
   TC - TEMPERATURE IN CELSIUS
  WCI - WIND CHILL INDEX
   HX - HEAT INDEX
  VSB - VISIBILITY





USA.gov is the U.S. government's official web portal to all federal, state and local government web resources and services.